weather.gov     
National Weather Service

Weather Roundup
NWS Homepage
This page is being discontinued on March 12, 2014.
The same data is available at this site. Please update your bookmarks.
Thank you, and we apologize for the inconvenience.
Please send an email to SR-SRH.Webmaster@noaa.gov with any concerns.


Current Version
Previous Version:    01  02  03  04  05  06  07  08  09  10  11  12  13  14  15  16  17  18  19  20  21  22  23  24  25  26  27  28  29  30  
   31  32  33  34  35  36  37  38  39  40  41  42  43  44  45  46  47  48  49  50  51  52  53  54  55  56  57  58  59  60  
[Printable]
734
ASUS44 KCRP 210910
HRRCRP

SOUTH TEXAS REGIONAL WEATHER ROUNDUP
NATIONAL WEATHER SERVICE CORPUS CHRISTI TX
300 AM CST SUN DEC 21 2014


TXZ229>244-211000-
...CORPUS CHRISTI AREA OBSERVATIONS...

CITY           SKY/WX    TMP DP  RH WIND       PRES   REMARKS
CORPUS CHRISTI CLOUDY    54  50  86 NE12      30.10F
NAS CORPUS CHR CLOUDY    56  53  90 NE14      30.10F
ROCKPORT       MOCLDY    53  51  93 NE8       30.12F
KINGSVILLE NAS CLOUDY    54  53  97 NE7       30.10F
ALICE          CLOUDY    54  50  86 NE6       30.10F
FALFURRIAS     CLOUDY    55  50  85 NE3       30.11F
$$

...VICTORIA AREA OBSERVATIONS...

CITY           SKY/WX    TMP DP  RH WIND       PRES   REMARKS
VICTORIA       CLOUDY    54  51  90 N7        30.14F
BEEVILLE       CLOUDY    52  51  97 E5        30.11F
PLEASANTON     CLOUDY    53  48  84 CALM      30.13F
SAN ANTONIO    CLOUDY    52  48  86 SE6       30.12F
$$

...LAREDO AREA OBSERVATIONS...

CITY           SKY/WX    TMP DP  RH WIND       PRES   REMARKS
LAREDO         NOT AVBL
COTULLA        CLOUDY    52  47  83 SE6       30.12F
DEL RIO        CLOUDY    50  45  83 SE9       30.09F
MCALLEN        CLOUDY    55  52  89 N9        30.11F
HEBBRONVILLE   CLOUDY    52  50  90 NE3       30.11F FOG
$$

...OTHER TEXAS OBSERVATIONS...

CITY           SKY/WX    TMP DP  RH WIND       PRES   REMARKS
BROWNSVILLE    CLOUDY    58  55  90 NW8       30.07F
HOUSTON        CLOUDY    50  46  86 NE5       30.16S
COL. STATION   CLOUDY    50  45  83 CALM      30.16F
AUSTIN         CLOUDY    50  48  93 SE5       30.13F
WACO           CLOUDY    48  45  89 SE8       30.15F
FORT WORTH     CLOUDY    47  44  90 S6        30.14S
WICHITA FALLS  CLOUDY    42  39  89 E6        30.08F
LUBBOCK        FOG       42  41  96 SW15      29.97F VSB 3/4
EL PASO        CLOUDY    42  27  55 NW3       30.05S
$$

...MARINE OBSERVATIONS...

STATION/POSITION TIME  SKY/WX   TEMP    WIND        PRES    VSBY  WAVE   SWELL
                                AIR SEA DIR/SP/G                  HT/PER HT/PER
                 (UTC)          (F)     (DEG/KT/KT) (MB)    (MI)  (FT/S) (FT/S)
PORT ARANSAS     0900            56 63   30/ 14/ 16 1019.5F
BUOY 90 E PORT A 0900            63 72   30/ 14/ 17 1019.1F         4/ 7   2/ 7
BUOY 45 SE BAFFI 0900            65 73   30/ 17/ 19 1017.6F         5/ 6
BUOY 200 E PT IS 0900            70 73   50/ 12/ 14 1016.4F         4/ 7   3/ 7
BUOY 15 E GALVES 0900            56 64   50/ 12/ 16 1019.7F         3/ 4   2/ 6
$$




U.S. Dept. of Commerce
NOAA National Weather Service
1325 East West Highway
Silver Spring, MD 20910
E-mail: w-nws.webmaster@noaa.gov
Page last modified: May 16, 2007
NATIONAL WEATHER SERVICE: for Safety, for Work, for Fun - FOR LIFE